[[{"header":{"parameterUnit":"m.s-1","parameterCategory":2,"la1":30.2991,"la2":30.254,"lo1":-89.0895,"lo2":-89.0444,"dy":0.0017,"dx":0.0017,"nx":28,"ny":28,"refTime":"2024-03-31T09:00:00:Z","depth":"0","parameterNumber":2,"parameterNumberName":"U-component_of_CURRENTS"},"data":[0,0,0,0,0,0,0,0,0,0,0,0,0,0,0,0,0,0,0,0,0,0,0,0,0,0,0,0,0,0,0,0,0,0,0,0,0,0,0,0,0,0,0,0,0,0,0,0,0,0,0,0,0,0,0,0,0,0,0.2897,0.2897,0,0.2925,0.2926,0.2926,0.2921,0.2921,0.292,0.292,0.2924,0.2924,0.2924,0,0,0,0,0,0,0,0,0,0,0,0,0,0.2855,0.2855,0.2897,0.2897,0.2898,0.2925,0.2926,0.2926,0.2921,0.2921,0.292,0.292,0.2923,0.2924,0.2924,0,0,0,0,0,0,0,0,0,0,0,0,0,0.2875,0.2855,0.2896,0.29,0.2901,0.2925,0.2926,0.2926,0.2921,0.2921,0.292,0.292,0.2923,0.2924,0.2924,0.2937,0,0,0.2926,0.2926,0,0,0,0,0,0,0,0,0.2874,0.2876,0.2899,0.29,0.2901,0.2921,0.2912,0.2929,0.2921,0.2911,0.292,0.292,0.2922,0.2923,0.2927,0.2937,0.2938,0.2926,0.2927,0.2927,0.2927,0,0,0,0,0,0,0,0.2873,0.2875,0.2906,0.29,0.2901,0.2907,0.2908,0.2915,0.2917,0.2912,0.2912,0.2919,0.2922,0.2926,0.2927,0.2938,0.2926,0.2927,0.2927,0.2927,0.2999,0.3,0,0,0,0,0,0,0.2873,0.2874,0.2905,0.2907,0.2888,0.2908,0.291,0.2913,0.2917,0.2918,0.2919,0.2919,0.2925,0.2926,0.2927,0.2972,0.2927,0.2927,0.2928,0.2997,0.2999,0.3001,0,0,0,0,0,0,0.2872,0.2875,0.2904,0.2893,0.2897,0.2909,0.2913,0.2914,0.2923,0.2924,0.2923,0.2927,0.2925,0.2926,0.2944,0.2971,0.2928,0.2928,0.2995,0.2998,0.3,0.3044,0,0,0,0,0,0,0.287,0.2875,0.2877,0.2893,0.2898,0.2926,0.2914,0.2915,0.2928,0.2928,0.293,0.293,0.2925,0.2943,0.2945,0.2971,0.2929,0.2993,0.2996,0.2999,0.3041,0.3048,0.3054,0,0,0,0,0,0.2869,0.2875,0.2877,0.288,0.29,0.2927,0.293,0.2935,0.2929,0.2939,0.2943,0.293,0.2963,0.2945,0.2946,0.2973,0.2992,0.2995,0.2999,0.3038,0.3046,0.3053,0,0,0,0,0,0,0.2856,0.2876,0.2878,0.2889,0.291,0.2927,0.2936,0.294,0.2951,0.2949,0.2945,0.2945,0.2974,0.297,0.295,0.3005,0.2978,0.2982,0.3007,0.3015,0.3021,0.3032,0.2929,0,0,0,0,0,0.2856,0.2866,0.2888,0.2898,0.2908,0.2923,0.2933,0.294,0.2953,0.2957,0.2958,0.2968,0.299,0.2997,0.301,0.3035,0.3067,0.3056,0.3062,0.3068,0.3079,0.3165,0.3181,0.3012,0.3012,0.3012,0,0,0.2854,0.2867,0.2872,0.2896,0.291,0.2933,0.2928,0.2949,0.2971,0.2956,0.2979,0.2988,0.3003,0.3035,0.3048,0.3033,0.3133,0.3072,0.3077,0.3085,0.317,0.3187,0.3202,0.3014,0.3014,0.3014,0,0,0.2859,0.2868,0.2879,0.29,0.2927,0.2942,0.2951,0.2972,0.2983,0.3009,0.3012,0.3041,0.3056,0.3082,0.3096,0.3148,0.3165,0.315,0.3189,0.3273,0.3288,0.3301,0.3363,0.3382,0.3152,0.3152,0.3152,0,0.2855,0.2869,0.2888,0.2909,0.2926,0.2948,0.2968,0.2993,0.3017,0.3038,0.302,0.3083,0.3085,0.3152,0.3166,0.3163,0.3208,0.3156,0.3282,0.3296,0.3309,0.337,0.339,0.3155,0.3154,0.3154,0.3154,0,0.287,0.2885,0.2896,0.2929,0.2954,0.2975,0.3013,0.304,0.3052,0.3079,0.3137,0.3151,0.3196,0.32,0.3195,0.3291,0.3293,0.3282,0.3262,0.3329,0.3388,0.3408,0.3158,0.3157,0.3157,0.3156,0,0,0.2844,0.2894,0.2896,0.2911,0.2962,0.2982,0.3036,0.3088,0.3137,0.3161,0.3233,0.3261,0.3281,0.33,0.3309,0.3368,0.3487,0.3364,0.3367,0.3425,0.3672,0.3595,0.3609,0.3506,0.351,0.3513,0.3676,0,0.2844,0.2874,0.2908,0.2943,0.2958,0.3009,0.3061,0.3118,0.317,0.325,0.3294,0.3362,0.3319,0.3357,0.3411,0.3484,0.3543,0.3443,0.3599,0.3604,0.3527,0.3631,0.3499,0.3627,0.3696,0.3699,0.3702,0,0.2837,0.2858,0.2885,0.2944,0.2959,0.2995,0.3085,0.3136,0.3262,0.3314,0.3397,0.3447,0.3554,0.3505,0.3658,0.3602,0.364,0.3676,0.3683,0.361,0.3564,0.3572,0.3661,0.3589,0.3732,0.373,0.3728,0,0.2786,0.2839,0.2855,0.2874,0.2952,0.2987,0.3037,0.3149,0.3222,0.3374,0.3462,0.3574,0.3663,0.3737,0.38,0.3755,0.3967,0.3915,0.3876,0.3871,0.3787,0.3767,0.3822,0.402,0.402,0.402,0.4019,0,0.276,0.2771,0.2833,0.2842,0.2886,0.2954,0.3035,0.3114,0.3267,0.3381,0.3493,0.3614,0.3729,0.3853,0.3878,0.3953,0.4036,0.3913,0.3922,0.3796,0.3776,0.3728,0.3689,0.4026,0.4024,0.4023,0.4022,0,0.2698,0.2736,0.2761,0.2835,0.286,0.2892,0.3027,0.3109,0.3252,0.3419,0.3484,0.3695,0.3857,0.3949,0.4098,0.4056,0.4025,0.4121,0.3952,0.3936,0.3778,0.3745,0.3665,0.3562,0.4112,0.4111,0.411,0,0.2667,0.2672,0.2738,0.2767,0.2801,0.2868,0.2937,0.3082,0.3186,0.3457,0.3547,0.3767,0.3902,0.4093,0.4088,0.4144,0.4028,0.4024,0.3891,0.3779,0.3753,0.3585,0.3491,0.381,0.3807,0.3804,0.3802,0,0.2614,0.2641,0.2668,0.2732,0.2793,0.2852,0.2959,0.3033,0.3232,0.338,0.3582,0.3715,0.3912,0.393,0.4005,0.4005,0.3835,0.397,0.3923,0.3581,0.3339,0.324,0.3683,0.378,0.3782,0.3784,0.3785,0.3786,0.258,0.2592,0.265,0.2703,0.2765,0.2825,0.2849,0.2984,0.3118,0.3297,0.3488,0.3611,0.3748,0.3833,0.3817,0.3712,0.3671,0.3603,0.3597,0.3454,0.3268,0.3642,0.3695,0.3696,0.3698,0.3699,0.37,0,0.2549,0.2579,0.2628,0.2682,0.2714,0.2771,0.2862,0.287,0.2962,0.3135,0.3267,0.3396,0.3435,0.351,0.3506,0.3385,0.3197,0.3298,0.3061,0.3006,0.3426,0.3325,0.3216,0.3216,0.3216,0.3216,0.3216,0.3216,0.2542,0.2571,0.2599,0.2622,0.265,0.2648,0.2665,0.2684,0.2753,0.2832,0.2897,0.3007,0.325,0.3339,0.3265,0.3173,0.2955,0.2796,0.2794,0.3135,0.3162,0.3189,0.3085,0.2928,0.2927,0.2238,0.2233,0.2229]},{"header":{"parameterUnit":"m.s-1","parameterCategory":2,"la1":30.2991,"la2":30.254,"lo1":-89.0895,"lo2":-89.0444,"dy":0.0017,"dx":0.0017,"nx":28,"ny":28,"refTime":"2024-03-31T09:00:00:Z","depth":"0","parameterNumber":3,"parameterNumberName":"V-component_of_CURRENTS"},"data":[0,0,0,0,0,0,0,0,0,0,0,0,0,0,0,0,0,0,0,0,0,0,0,0,0,0,0,0,0,0,0,0,0,0,0,0,0,0,0,0,0,0,0,0,0,0,0,0,0,0,0,0,0,0,0,0,0,0,0.0183,0.0182,0,0.0132,0.0132,0.0131,0.0093,0.0093,0.0093,0.0092,0.0029,0.0027,0.0026,0,0,0,0,0,0,0,0,0,0,0,0,0,0.0213,0.0213,0.0183,0.0182,0.0182,0.0132,0.0132,0.0131,0.0093,0.0093,0.0093,0.0092,0.0029,0.0028,0.0026,0,0,0,0,0,0,0,0,0,0,0,0,0,0.0185,0.0213,0.0183,0.0157,0.0155,0.0133,0.0132,0.0131,0.0093,0.0093,0.0093,0.0092,0.003,0.0028,0.0026,0.0022,0,0,0.0019,0.0018,0,0,0,0,0,0,0,0,0.0186,0.0184,0.0162,0.0159,0.0156,0.0119,0.0119,0.0094,0.0094,0.0116,0.0092,0.0092,0.0058,0.0054,0.0045,0.0019,0.0016,0.0019,0.0018,0.0017,0.0016,0,0,0,0,0,0,0,0.0189,0.0185,0.0163,0.0161,0.0158,0.0137,0.0132,0.0114,0.009,0.0114,0.0112,0.0107,0.0057,0.0047,0.0043,0.0015,0.0019,0.0017,0.0016,0.0015,-0.001,-0.001,0,0,0,0,0,0,0.0198,0.0188,0.0164,0.0161,0.0171,0.0137,0.0132,0.0131,0.009,0.0084,0.0107,0.0105,0.0051,0.0046,0.0041,0.0054,0.0017,0.0015,0.0014,-0.0011,-0.001,-0.0009,0,0,0,0,0,0,0.0199,0.0196,0.0166,0.0173,0.0168,0.0137,0.0136,0.013,0.0123,0.0085,0.0078,0.0107,0.005,0.0044,0.0031,0.005,0.0014,0.0012,-0.0011,-0.001,-0.001,0.0067,0,0,0,0,0,0,0.02,0.0197,0.0201,0.0174,0.0168,0.0164,0.0136,0.013,0.0121,0.0118,0.0082,0.0076,0.005,0.0034,0.0029,0.0047,0.001,-0.0012,-0.0011,-0.001,0.0064,0.0071,0.0076,0,0,0,0,0,0.0201,0.0214,0.0201,0.0198,0.0174,0.0164,0.016,0.0135,0.0122,0.0126,0.01,0.0077,0.0037,0.0033,0.0026,0.0044,-0.0013,-0.0011,-0.001,0.0061,0.0069,0.0076,0,0,0,0,0,0,0.0229,0.0211,0.0196,0.0202,0.0187,0.0158,0.016,0.0142,0.0124,0.0121,0.0083,0.0076,0.0069,0.0046,0.0042,0.004,0.0009,0.0009,0.0066,0.0073,0.0079,0.0096,0.0009,0,0,0,0,0,0.0237,0.0241,0.0218,0.0222,0.0218,0.0189,0.0182,0.0167,0.0146,0.0138,0.0112,0.0087,0.007,0.0063,0.004,0.0042,0.002,0.0049,0.0055,0.006,0.0069,0.0055,0.0061,-0.0005,-0.0005,-0.0005,0,0,0.0247,0.0238,0.0239,0.0227,0.0213,0.022,0.0184,0.0181,0.0188,0.0134,0.0137,0.0104,0.0073,0.0072,0.0068,0.0057,0.0068,0.0062,0.0067,0.0073,0.0057,0.0063,0.0069,-0.0004,-0.0004,-0.0004,0,0,0.0275,0.0264,0.0277,0.0273,0.0259,0.0245,0.0248,0.0224,0.0216,0.0212,0.0176,0.0156,0.0132,0.0113,0.0101,0.0128,0.0097,0.0123,0.0175,0.0161,0.0167,0.0171,0.0155,0.0157,0.0132,0.0133,0.0133,0,0.0288,0.0303,0.028,0.0295,0.03,0.0262,0.0284,0.0272,0.0247,0.025,0.0224,0.019,0.0153,0.0161,0.0164,0.0144,0.0131,0.0152,0.0171,0.0175,0.0178,0.016,0.0162,0.0136,0.0136,0.0136,0.0135,0,0.0327,0.034,0.0351,0.0358,0.036,0.0373,0.0358,0.0358,0.0341,0.0327,0.0324,0.0273,0.0259,0.024,0.0208,0.022,0.0202,0.0177,0.0155,0.019,0.0168,0.0168,0.0142,0.0141,0.0139,0.0138,0,0,0.0358,0.0375,0.0381,0.0402,0.0399,0.041,0.0426,0.0436,0.0465,0.0422,0.0459,0.0399,0.0371,0.0355,0.0313,0.0292,0.0292,0.0252,0.0249,0.0242,0.0266,0.0227,0.0223,0.0276,0.0276,0.0276,0.0242,0,0.0398,0.0445,0.0442,0.0493,0.0518,0.0503,0.0531,0.0532,0.0528,0.0553,0.0498,0.0511,0.0419,0.0426,0.0386,0.0326,0.0297,0.0303,0.0227,0.0225,0.0192,0.0223,0.0236,0.0205,0.0242,0.0242,0.0242,0,0.0442,0.047,0.0527,0.0575,0.0587,0.0616,0.0665,0.0686,0.0699,0.07,0.0687,0.0652,0.062,0.0542,0.044,0.0453,0.0364,0.0301,0.0298,0.0236,0.0187,0.0175,0.0204,0.0072,0.0242,0.0242,0.0242,0,0.0485,0.0535,0.0588,0.0602,0.0645,0.068,0.0708,0.0732,0.0784,0.0807,0.0856,0.0787,0.079,0.0666,0.0516,0.049,0.0407,0.0355,0.0231,0.0227,0.0209,0.0203,0.0107,0.0279,0.0279,0.0279,0.0279,0,0.0535,0.0578,0.0619,0.065,0.0734,0.0743,0.0841,0.0855,0.0922,0.102,0.0945,0.1012,0.0822,0.075,0.0582,0.0417,0.0454,0.0248,0.022,0.0235,0.0232,0.0091,-0.0017,0.0278,0.0278,0.0278,0.0278,0,0.0576,0.0596,0.0665,0.0728,0.0756,0.0821,0.0935,0.1019,0.106,0.1193,0.1218,0.1192,0.1098,0.0891,0.0705,0.0523,0.0262,0.0282,0.0309,0.0283,0.0024,-0.008,-0.0235,-0.0314,0.0143,0.0142,0.0141,0,0.0601,0.064,0.0726,0.0787,0.0824,0.0924,0.1013,0.1081,0.119,0.1321,0.1409,0.1359,0.1355,0.105,0.0718,0.0418,0.0247,0.0221,0.0154,0.0021,-0.0117,-0.0183,-0.0243,0.0163,0.0162,0.0161,0.0161,0,0.0655,0.0684,0.0746,0.087,0.0972,0.1096,0.123,0.1335,0.1455,0.158,0.1727,0.1734,0.1444,0.1155,0.0717,0.0491,0.0112,0.0199,0.0063,-0.0109,-0.0188,-0.0279,0.017,0.0156,0.0156,0.0157,0.0157,0.0157,0.07,0.0757,0.0847,0.097,0.1095,0.1267,0.1388,0.1559,0.1752,0.1956,0.1944,0.1982,0.1556,0.0963,0.0644,0.0088,0.0055,-0.0079,-0.0193,-0.0244,-0.0332,0.0099,0.0047,0.0047,0.0047,0.0047,0.0046,0,0.0761,0.0829,0.0946,0.1099,0.1254,0.131,0.154,0.1687,0.1937,0.2102,0.2214,0.2012,0.1476,0.0929,0.0177,-0.0209,-0.0352,-0.0421,-0.05,-0.0544,-0.0143,-0.0152,-0.0251,-0.0251,-0.0251,-0.0251,-0.025,-0.025,0.0797,0.0908,0.0971,0.121,0.1332,0.1551,0.1691,0.1915,0.2075,0.2288,0.2312,0.2287,0.1899,0.0543,-0.0342,-0.0563,-0.0794,-0.0871,-0.1002,-0.0717,-0.0693,-0.0669,-0.07,-0.0912,-0.0913,-0.1322,-0.1326,-0.133]}],[{"header":{"parameterUnit":"m.s-1","parameterCategory":2,"la1":30.2991,"la2":30.254,"lo1":-89.0895,"lo2":-89.0444,"dy":0.0017,"dx":0.0017,"nx":28,"ny":28,"refTime":"2024-03-31T09:00:00:Z","depth":"2","parameterNumber":2,"parameterNumberName":"U-component_of_CURRENTS"},"data":[0,0,0,0,0,0,0,0,0,0,0,0,0,0,0,0,0,0,0,0,0,0,0,0,0,0,0,0,0,0,0,0,0,0,0,0,0,0,0,0,0,0,0,0,0,0,0,0,0,0,0,0,0,0,0,0,0,0,0.2672,0.2673,0,0.2703,0.2703,0.2703,0.2709,0.2709,0.2709,0.2708,0.2723,0.2724,0.2724,0,0,0,0,0,0,0,0,0,0,0,0,0,0.2626,0.2627,0.2672,0.2673,0.2674,0.2703,0.2703,0.2703,0.2709,0.2709,0.2708,0.2708,0.2723,0.2724,0.2724,0,0,0,0,0,0,0,0,0,0,0,0,0,0.2648,0.2627,0.2672,0.2681,0.2683,0.2703,0.2703,0.2703,0.2709,0.2709,0.2708,0.2708,0.2723,0.2724,0.2724,0.2729,0,0,0.2726,0.2726,0,0,0,0,0,0,0,0,0.2647,0.265,0.268,0.2681,0.2682,0.2704,0.2692,0.2712,0.2709,0.2696,0.2708,0.2708,0.2717,0.2718,0.2721,0.273,0.2731,0.2726,0.2727,0.2727,0.2727,0,0,0,0,0,0,0,0.2645,0.2648,0.2682,0.268,0.2682,0.2687,0.2689,0.2696,0.2704,0.2697,0.2698,0.2706,0.2717,0.272,0.2721,0.2731,0.2726,0.2727,0.2727,0.2727,0.28,0.2802,0,0,0,0,0,0,0.2646,0.2647,0.2681,0.2683,0.2667,0.2688,0.2691,0.2695,0.2705,0.2707,0.2706,0.2706,0.2719,0.272,0.2722,0.2774,0.2727,0.2727,0.2728,0.2799,0.2801,0.2802,0,0,0,0,0,0,0.2645,0.2649,0.268,0.2668,0.2672,0.2689,0.2694,0.2696,0.271,0.2712,0.2713,0.272,0.2719,0.2721,0.2744,0.2773,0.2728,0.2728,0.2797,0.2799,0.2802,0.2849,0,0,0,0,0,0,0.2643,0.2648,0.2654,0.2668,0.2673,0.2703,0.2694,0.2697,0.2715,0.2716,0.2724,0.2724,0.2719,0.2743,0.2744,0.2773,0.2729,0.2795,0.2798,0.2801,0.2845,0.2852,0.2858,0,0,0,0,0,0.2641,0.265,0.2654,0.2658,0.268,0.2704,0.2707,0.2717,0.2716,0.2728,0.2736,0.2725,0.2762,0.2744,0.2746,0.2775,0.2794,0.2797,0.2801,0.2842,0.2851,0.2858,0,0,0,0,0,0,0.2632,0.2652,0.2656,0.267,0.2691,0.2706,0.2718,0.2725,0.274,0.2742,0.2739,0.2741,0.2774,0.2769,0.2749,0.2807,0.2779,0.2783,0.281,0.2818,0.2825,0.2835,0.2729,0,0,0,0,0,0.2634,0.2645,0.2666,0.2679,0.269,0.2706,0.2718,0.2728,0.2742,0.2749,0.2754,0.2767,0.2788,0.2798,0.281,0.2837,0.286,0.286,0.2866,0.2872,0.2883,0.2953,0.2967,0.2814,0.2814,0.2814,0,0,0.2633,0.2647,0.2653,0.2679,0.2693,0.2716,0.2713,0.2737,0.276,0.2748,0.2777,0.2788,0.2801,0.2835,0.2849,0.2834,0.2928,0.2876,0.2881,0.2889,0.2958,0.2973,0.2986,0.2816,0.2816,0.2815,0,0,0.264,0.2653,0.2665,0.2686,0.2716,0.2729,0.274,0.2763,0.2778,0.2808,0.2813,0.2844,0.2862,0.2885,0.2898,0.295,0.2961,0.2955,0.2997,0.3064,0.3078,0.309,0.3139,0.3155,0.2958,0.2958,0.2958,0,0.2641,0.2656,0.2674,0.2696,0.2714,0.2738,0.2758,0.2783,0.2811,0.2834,0.2823,0.2886,0.289,0.2951,0.297,0.2966,0.3002,0.2962,0.3074,0.3086,0.3098,0.3146,0.3163,0.2961,0.296,0.296,0.296,0,0.2655,0.2673,0.2685,0.2718,0.2744,0.2766,0.2803,0.2833,0.2852,0.2877,0.2937,0.2953,0.2997,0.3004,0.3001,0.3089,0.3087,0.3074,0.3052,0.3116,0.3162,0.3179,0.2964,0.2963,0.2963,0.2962,0,0,0.2636,0.2684,0.2688,0.2704,0.2755,0.2773,0.2827,0.2878,0.2924,0.2956,0.3022,0.3057,0.3079,0.3097,0.3108,0.3159,0.3265,0.3155,0.3157,0.3203,0.3417,0.3345,0.3356,0.3278,0.3281,0.3284,0.3416,0,0.2639,0.2669,0.2701,0.2737,0.2753,0.2803,0.2851,0.2907,0.2959,0.3032,0.3076,0.3141,0.3114,0.3152,0.3201,0.3258,0.3313,0.323,0.335,0.3353,0.3281,0.3374,0.3093,0.3182,0.3433,0.3436,0.3438,0,0.2635,0.2656,0.2686,0.274,0.2755,0.279,0.2875,0.2926,0.3039,0.3089,0.317,0.3216,0.3313,0.3277,0.3408,0.3362,0.3398,0.3426,0.3432,0.3361,0.3313,0.316,0.3203,0.3466,0.3464,0.3462,0.346,0,0.259,0.2642,0.2661,0.268,0.2752,0.2788,0.2836,0.2941,0.3008,0.3147,0.3226,0.3323,0.3406,0.3468,0.3527,0.3489,0.3664,0.3617,0.3583,0.3577,0.3358,0.3328,0.3714,0.3713,0.3713,0.3713,0.3712,0,0.2568,0.2582,0.2644,0.2654,0.2695,0.2762,0.2838,0.2912,0.3051,0.3148,0.3259,0.3359,0.3464,0.3568,0.3588,0.3649,0.372,0.3617,0.362,0.3366,0.3336,0.359,0.3574,0.3718,0.3717,0.3716,0.3715,0,0.2514,0.2552,0.2578,0.2649,0.2674,0.2708,0.2833,0.2899,0.3042,0.3186,0.3245,0.3431,0.3565,0.3648,0.3769,0.3735,0.3789,0.3785,0.3473,0.3436,0.3638,0.3623,0.3769,0.3768,0.3767,0.3766,0.3765,0,0.2486,0.2494,0.2559,0.2582,0.2616,0.2683,0.2737,0.2875,0.2968,0.3213,0.3285,0.3479,0.3576,0.3732,0.3722,0.3762,0.3812,0.3513,0.3379,0.3663,0.3651,0.3638,0.3624,0.311,0.3104,0.3099,0.3095,0,0.2437,0.2466,0.249,0.254,0.2589,0.2644,0.2742,0.2807,0.2991,0.3107,0.3275,0.3373,0.3541,0.3462,0.353,0.3501,0.3479,0.3414,0.3824,0.3135,0.3051,0.3036,0.3043,0.3051,0.3056,0.3059,0.3061,0.3063,0.2405,0.2416,0.2462,0.2501,0.2552,0.2606,0.2614,0.273,0.2831,0.2969,0.3136,0.3181,0.3245,0.3203,0.3119,0.3059,0.3293,0.3133,0.3144,0.3162,0.3057,0.2976,0.2943,0.2946,0.2949,0.2952,0.2954,0,0.2366,0.2395,0.2426,0.2463,0.2472,0.2538,0.2614,0.259,0.2636,0.2771,0.286,0.2675,0.2652,0.271,0.256,0.2568,0.2497,0.2454,0.2333,0.2381,0.2423,0.2275,0.1956,0.1952,0.1949,0.1946,0,0,0.2355,0.2361,0.2377,0.2372,0.2398,0.2374,0.2386,0.2364,0.2407,0.2357,0.2354,0.2562,0.266,0.228,0.2236,0.2069,0.2195,0.1982,0.2796,0.2705,0.2742,0.2846,0.2678,0,0,0,0,0]},{"header":{"parameterUnit":"m.s-1","parameterCategory":2,"la1":30.2991,"la2":30.254,"lo1":-89.0895,"lo2":-89.0444,"dy":0.0017,"dx":0.0017,"nx":28,"ny":28,"refTime":"2024-03-31T09:00:00:Z","depth":"2","parameterNumber":3,"parameterNumberName":"V-component_of_CURRENTS"},"data":[0,0,0,0,0,0,0,0,0,0,0,0,0,0,0,0,0,0,0,0,0,0,0,0,0,0,0,0,0,0,0,0,0,0,0,0,0,0,0,0,0,0,0,0,0,0,0,0,0,0,0,0,0,0,0,0,0,0,0.0042,0.0042,0,-0.0006,-0.0006,-0.0007,-0.004,-0.004,-0.0041,-0.0041,-0.0102,-0.0103,-0.0105,0,0,0,0,0,0,0,0,0,0,0,0,0,0.007,0.007,0.0042,0.0042,0.0041,-0.0006,-0.0006,-0.0007,-0.004,-0.004,-0.0041,-0.0041,-0.0101,-0.0103,-0.0105,0,0,0,0,0,0,0,0,0,0,0,0,0,0.0043,0.007,0.0042,0.0019,0.0017,-0.0005,-0.0006,-0.0007,-0.004,-0.004,-0.0041,-0.0041,-0.0101,-0.0103,-0.0105,-0.0112,0,0,-0.0112,-0.0113,0,0,0,0,0,0,0,0,0.0045,0.0042,0.0023,0.0021,0.0018,-0.0017,-0.0019,-0.0043,-0.004,-0.0019,-0.0041,-0.0041,-0.0074,-0.0078,-0.0087,-0.0115,-0.0118,-0.0112,-0.0113,-0.0114,-0.0115,0,0,0,0,0,0,0,0.0047,0.0044,0.0023,0.0023,0.002,-0.0,-0.0004,-0.0024,-0.0045,-0.0021,-0.0023,-0.0028,-0.0076,-0.0085,-0.0089,-0.0119,-0.0112,-0.0114,-0.0115,-0.0116,-0.0144,-0.0144,0,0,0,0,0,0,0.0056,0.0046,0.0024,0.0021,0.0032,-0.0,-0.0005,-0.0006,-0.0045,-0.005,-0.0027,-0.0029,-0.0081,-0.0086,-0.0091,-0.0079,-0.0114,-0.0116,-0.0117,-0.0145,-0.0144,-0.0143,0,0,0,0,0,0,0.0057,0.0055,0.0026,0.0033,0.0028,-0.0,-0.0001,-0.0007,-0.0011,-0.0049,-0.0056,-0.0026,-0.0082,-0.0088,-0.0101,-0.0083,-0.0117,-0.0119,-0.0145,-0.0144,-0.0144,-0.0069,0,0,0,0,0,0,0.0058,0.0056,0.006,0.0034,0.0028,0.0023,-0.0001,-0.0007,-0.0014,-0.0016,-0.005,-0.0057,-0.0083,-0.0097,-0.0103,-0.0086,-0.0121,-0.0146,-0.0145,-0.0144,-0.0073,-0.0066,-0.0061,0,0,0,0,0,0.0059,0.0071,0.006,0.0058,0.0034,0.0024,0.002,-0.0002,-0.0013,-0.0009,-0.0033,-0.0055,-0.0095,-0.0098,-0.0105,-0.0089,-0.0146,-0.0145,-0.0144,-0.0075,-0.0067,-0.0061,0,0,0,0,0,0,0.0086,0.0068,0.0056,0.0061,0.0047,0.0019,0.0021,0.0005,-0.0011,-0.0013,-0.0049,-0.0057,-0.0063,-0.0086,-0.0089,-0.0095,-0.0124,-0.0124,-0.0069,-0.0062,-0.0056,-0.0039,-0.0122,0,0,0,0,0,0.0094,0.0097,0.0076,0.0079,0.0076,0.005,0.0043,0.0029,0.001,0.0002,-0.0022,-0.0046,-0.0064,-0.0071,-0.0094,-0.0094,-0.0119,-0.0088,-0.0082,-0.0077,-0.0068,-0.009,-0.0085,-0.0139,-0.0139,-0.0139,0,0,0.0104,0.0095,0.0096,0.0085,0.0072,0.0078,0.0045,0.0043,0.005,-0.0001,0.0002,-0.0029,-0.0061,-0.0064,-0.0068,-0.0079,-0.0075,-0.0075,-0.007,-0.0064,-0.0089,-0.0083,-0.0079,-0.0139,-0.0139,-0.0139,0,0,0.013,0.0121,0.0133,0.0129,0.0116,0.0103,0.0106,0.0084,0.0078,0.0074,0.0039,0.0021,-0.0004,-0.0023,-0.0036,-0.0011,-0.0047,-0.0017,0.0033,0.0011,0.0016,0.0019,-0.0004,-0.0003,-0.0009,-0.0009,-0.0009,0,0.0143,0.0157,0.0135,0.0149,0.0154,0.012,0.014,0.0129,0.0106,0.0108,0.0086,0.005,0.0016,0.0019,0.0024,0.0003,-0.0015,0.001,0.002,0.0023,0.0025,0.0001,0.0001,-0.0005,-0.0005,-0.0006,-0.0006,0,0.0179,0.0192,0.0202,0.0209,0.0211,0.0224,0.0209,0.0209,0.0195,0.018,0.0176,0.0128,0.0111,0.0095,0.0066,0.0072,0.0052,0.0027,0.0005,0.0036,0.0007,0.0006,0.0,-0.0001,-0.0002,-0.0003,0,0,0.021,0.0225,0.0231,0.025,0.0248,0.0258,0.0273,0.028,0.0304,0.0267,0.0293,0.0243,0.0216,0.0199,0.016,0.0136,0.0128,0.0097,0.0094,0.0081,0.0084,0.0055,0.0051,0.0109,0.0109,0.0109,0.0058,0,0.0248,0.0291,0.0288,0.0335,0.0359,0.0344,0.0368,0.0368,0.0363,0.0378,0.0327,0.0333,0.0258,0.0262,0.0223,0.0156,0.0129,0.0145,0.0051,0.0048,0.0024,0.0049,0.0062,0.0017,0.0057,0.0057,0.0056,0,0.029,0.0315,0.0369,0.041,0.0422,0.0447,0.0489,0.0506,0.0509,0.0508,0.0492,0.0454,0.0419,0.0355,0.025,0.0266,0.0184,0.0121,0.0117,0.0065,0.0018,-0.0008,0.0013,0.0054,0.0054,0.0054,0.0054,0,0.0331,0.0377,0.0427,0.044,0.0477,0.0508,0.0532,0.0549,0.0593,0.0602,0.0639,0.0566,0.0563,0.0443,0.0301,0.0284,0.0184,0.0141,0.0035,0.0031,0.0011,0.0006,0.0069,0.0069,0.0069,0.0069,0.0069,0,0.0379,0.0419,0.0456,0.0485,0.0561,0.0568,0.0653,0.0663,0.0713,0.0791,0.0719,0.0759,0.0588,0.0507,0.035,0.0194,0.0218,0.0051,0.002,0.0036,0.0034,0.0038,0.0035,0.0067,0.0068,0.0068,0.0068,0,0.0419,0.0437,0.0501,0.0557,0.0583,0.0642,0.0741,0.0807,0.0842,0.0946,0.0964,0.0916,0.0811,0.0623,0.0437,0.028,0.0117,0.0053,0.0081,0.0055,-0.0035,-0.0034,-0.0067,-0.0069,-0.007,-0.0071,-0.0072,0,0.0442,0.0479,0.0558,0.0612,0.0646,0.0736,0.0808,0.0865,0.0957,0.1048,0.1114,0.1048,0.1015,0.0719,0.0435,0.0164,0.0122,-0.0008,-0.0051,-0.0021,-0.0047,-0.0044,-0.0041,-0.005,-0.0051,-0.0051,-0.0052,0,0.0492,0.052,0.0576,0.0684,0.077,0.088,0.0997,0.1088,0.1183,0.1268,0.1361,0.1337,0.1072,0.0796,0.0418,0.0221,0.003,-0.0027,0.0009,-0.0018,-0.001,-0.0034,-0.0031,-0.0056,-0.0056,-0.0055,-0.0055,-0.0055,0.0532,0.0584,0.0661,0.0769,0.0877,0.1029,0.1133,0.1271,0.142,0.1565,0.153,0.15,0.1185,0.0699,0.0362,0.0005,0.0023,-0.0115,-0.0112,-0.0108,-0.0097,-0.0091,-0.0151,-0.0151,-0.0151,-0.0151,-0.0151,0,0.0583,0.0646,0.0744,0.088,0.1011,0.1064,0.1265,0.1374,0.1559,0.1668,0.1731,0.1419,0.1107,0.0739,0.0219,-0.0092,-0.0123,-0.0207,-0.017,-0.0163,-0.0158,-0.0149,-0.0218,-0.0219,-0.0219,-0.022,0,0,0.0614,0.0706,0.0757,0.0968,0.1081,0.1265,0.1389,0.1555,0.1673,0.1751,0.1738,0.1683,0.1231,0.0843,0.041,0.0106,0.0042,0.0032,0.0118,0.0221,0.023,-0.0075,-0.0051,0,0,0,0,0]}],[{"header":{"parameterUnit":"m.s-1","parameterCategory":2,"la1":30.2991,"la2":30.254,"lo1":-89.0895,"lo2":-89.0444,"dy":0.0017,"dx":0.0017,"nx":28,"ny":28,"refTime":"2024-03-31T09:00:00:Z","depth":"4","parameterNumber":2,"parameterNumberName":"U-component_of_CURRENTS"},"data":[0,0,0,0,0,0,0,0,0,0,0,0,0,0,0,0,0,0,0,0,0,0,0,0,0,0,0,0,0,0,0,0,0,0,0,0,0,0,0,0,0,0,0,0,0,0,0,0,0,0,0,0,0,0,0,0,0,0,0.1731,0.1732,0,0.1797,0.1798,0.1798,0.1857,0.1857,0.1858,0.1859,0.1938,0.1939,0.1941,0,0,0,0,0,0,0,0,0,0,0,0,0,0.1647,0.1648,0.1731,0.1732,0.1733,0.1797,0.1798,0.1798,0.1856,0.1858,0.1859,0.186,0.1938,0.1939,0.1941,0,0,0,0,0,0,0,0,0,0,0,0,0,0.1693,0.1648,0.1731,0.1772,0.1776,0.1797,0.1798,0.1798,0.1856,0.1858,0.1859,0.186,0.1937,0.1939,0.1941,0.1925,0,0,0.1947,0.1947,0,0,0,0,0,0,0,0,0.169,0.1695,0.1765,0.1769,0.1774,0.1822,0.1797,0.1842,0.1856,0.1823,0.1859,0.1861,0.1901,0.1906,0.1912,0.1929,0.1933,0.1947,0.1948,0.1949,0.1949,0,0,0,0,0,0,0,0.1687,0.1693,0.1755,0.1766,0.1772,0.1784,0.1791,0.1805,0.1852,0.1826,0.1831,0.1842,0.1904,0.191,0.1914,0.1934,0.1947,0.1948,0.195,0.195,0.2063,0.2064,0,0,0,0,0,0,0.1683,0.169,0.1753,0.1757,0.1737,0.1784,0.1793,0.1803,0.1852,0.1861,0.1841,0.1844,0.1906,0.1912,0.1917,0.2009,0.1949,0.1951,0.1952,0.2061,0.2063,0.2065,0,0,0,0,0,0,0.168,0.1687,0.175,0.1727,0.1736,0.1785,0.1796,0.1804,0.185,0.1863,0.1873,0.1883,0.1907,0.1915,0.1967,0.2008,0.1951,0.1953,0.2059,0.2061,0.2064,0.2123,0,0,0,0,0,0,0.1678,0.1686,0.171,0.1727,0.1737,0.1787,0.1795,0.1804,0.1853,0.186,0.1902,0.1908,0.1909,0.1964,0.1969,0.201,0.1955,0.2056,0.206,0.2063,0.2119,0.2128,0.2135,0,0,0,0,0,0.1674,0.1694,0.171,0.1719,0.1762,0.1789,0.1796,0.1832,0.1854,0.1878,0.1912,0.1909,0.199,0.1967,0.1972,0.2015,0.2055,0.2059,0.2063,0.2115,0.2126,0.2135,0,0,0,0,0,0,0.1671,0.1702,0.172,0.175,0.1781,0.18,0.1831,0.1853,0.1897,0.1916,0.1928,0.1936,0.1998,0.1998,0.1973,0.2058,0.2024,0.2029,0.2062,0.2072,0.208,0.2084,0.1956,0,0,0,0,0,0.168,0.1707,0.1733,0.1763,0.1781,0.1813,0.1837,0.1861,0.1894,0.1917,0.1946,0.198,0.2011,0.2037,0.2058,0.2102,0.211,0.2135,0.2143,0.215,0.2158,0.2207,0.2221,0.2079,0.2079,0.2079,0,0,0.1688,0.171,0.1727,0.1766,0.1794,0.1823,0.1832,0.1877,0.1913,0.1916,0.1986,0.2009,0.2029,0.2081,0.2109,0.2093,0.2196,0.2155,0.2161,0.2166,0.2213,0.2227,0.2239,0.2082,0.2081,0.2081,0,0,0.1703,0.1738,0.1763,0.179,0.1839,0.1856,0.1878,0.192,0.1957,0.2012,0.2029,0.2081,0.2126,0.2151,0.2167,0.2233,0.2235,0.2248,0.2297,0.2345,0.2356,0.2367,0.2396,0.2408,0.2255,0.2255,0.2255,0,0.1717,0.1746,0.1775,0.1805,0.1834,0.1876,0.1907,0.1945,0.2003,0.2037,0.2047,0.2138,0.2158,0.2221,0.2251,0.2252,0.2275,0.2256,0.2355,0.2366,0.2375,0.2402,0.2415,0.2258,0.2258,0.2257,0.2257,0,0.1736,0.1776,0.1795,0.1845,0.1881,0.1917,0.1965,0.2018,0.2066,0.21,0.2185,0.2217,0.2273,0.2291,0.2295,0.2379,0.2372,0.2356,0.2327,0.2393,0.2417,0.243,0.2263,0.2262,0.2261,0.226,0,0,0.172,0.1794,0.1805,0.1835,0.1907,0.1931,0.2005,0.207,0.2122,0.2191,0.226,0.2327,0.2359,0.2379,0.2398,0.2444,0.2535,0.2442,0.2443,0.2466,0.2641,0.2474,0.2472,0.2545,0.2547,0.2549,0.263,0,0.1731,0.1782,0.1823,0.1884,0.1912,0.1979,0.2037,0.2108,0.2173,0.225,0.2313,0.2383,0.2388,0.2431,0.2482,0.2525,0.2572,0.2514,0.2578,0.258,0.242,0.2482,0.2557,0.2639,0.2642,0.2644,0.2646,0,0.1728,0.1765,0.1823,0.1899,0.1921,0.1972,0.2073,0.2133,0.2246,0.23,0.239,0.2438,0.2539,0.2524,0.2639,0.2608,0.2638,0.2659,0.2662,0.2493,0.2436,0.2561,0.2668,0.2667,0.2665,0.2663,0.2662,0,0.1679,0.176,0.1808,0.1836,0.1931,0.1987,0.2051,0.2158,0.2216,0.235,0.241,0.2516,0.2593,0.2654,0.2716,0.2695,0.2821,0.2788,0.2662,0.2651,0.275,0.2738,0.2865,0.2865,0.2865,0.2865,0.2864,0,0.1649,0.1691,0.1798,0.1821,0.1889,0.1972,0.2058,0.2137,0.2254,0.2321,0.2444,0.2512,0.2636,0.2718,0.2749,0.2745,0.2855,0.268,0.2664,0.2773,0.2763,0.2759,0.2746,0.2868,0.2867,0.2866,0.2866,0,0.1584,0.1654,0.1713,0.1827,0.1869,0.1924,0.2056,0.2101,0.2237,0.2335,0.2388,0.2546,0.2651,0.2739,0.2841,0.2773,0.279,0.2761,0.2882,0.287,0.2578,0.2568,0.2616,0.2611,0.2607,0.2603,0.26,0,0.155,0.1577,0.1705,0.1737,0.1798,0.1892,0.1943,0.2083,0.2128,0.2332,0.2359,0.2525,0.2613,0.2627,0.2729,0.2763,0.2735,0.2714,0.2631,0.2575,0.2556,0.2552,0.2547,0.2593,0.2592,0.2591,0.259,0,0.1485,0.1552,0.1601,0.1664,0.173,0.1786,0.1877,0.1896,0.2053,0.2201,0.2281,0.2348,0.2459,0.253,0.2576,0.2596,0.2705,0.2668,0.2676,0.2598,0.2548,0.2532,0.2532,0.2574,0.2577,0.2578,0.2579,0,0.1447,0.1462,0.1529,0.1571,0.1637,0.1648,0.1717,0.1774,0.1847,0.206,0.2091,0.2277,0.2436,0.2447,0.2494,0.2494,0.2452,0.2356,0.238,0.2398,0.2287,0.2189,0.21,0,0,0,0,0,0.1395,0.1391,0.1418,0.1451,0.1504,0.1543,0.1645,0.1713,0.1873,0.1872,0.1971,0.2067,0.2152,0.2254,0.2211,0.2391,0.2453,0.2328,0.2352,0.2491,0.2508,0.2397,0,0,0,0,0,0,0.1356,0.1386,0.138,0.1335,0.1328,0.1373,0.1433,0.1544,0.1549,0.173,0.1792,0.1937,0.2054,0.216,0.2173,0.2199,0.2168,0.2444,0.2438,0.2481,0.2497,0.2511,0.2403,0,0,0,0,0]},{"header":{"parameterUnit":"m.s-1","parameterCategory":2,"la1":30.2991,"la2":30.254,"lo1":-89.0895,"lo2":-89.0444,"dy":0.0017,"dx":0.0017,"nx":28,"ny":28,"refTime":"2024-03-31T09:00:00:Z","depth":"4","parameterNumber":3,"parameterNumberName":"V-component_of_CURRENTS"},"data":[0,0,0,0,0,0,0,0,0,0,0,0,0,0,0,0,0,0,0,0,0,0,0,0,0,0,0,0,0,0,0,0,0,0,0,0,0,0,0,0,0,0,0,0,0,0,0,0,0,0,0,0,0,0,0,0,0,0,-0.0024,-0.0024,0,-0.0058,-0.0059,-0.0059,-0.0086,-0.0086,-0.0086,-0.0087,-0.014,-0.0141,-0.0142,0,0,0,0,0,0,0,0,0,0,0,0,0,-0.0004,-0.0004,-0.0024,-0.0024,-0.0025,-0.0058,-0.0059,-0.0059,-0.0086,-0.0086,-0.0086,-0.0087,-0.0139,-0.0141,-0.0142,0,0,0,0,0,0,0,0,0,0,0,0,0,-0.0023,-0.0004,-0.0024,-0.0042,-0.0044,-0.0058,-0.0059,-0.0059,-0.0086,-0.0086,-0.0086,-0.0087,-0.0139,-0.0141,-0.0143,-0.0147,0,0,-0.0148,-0.0149,0,0,0,0,0,0,0,0,-0.0022,-0.0024,-0.0039,-0.004,-0.0043,-0.0068,-0.0071,-0.009,-0.0086,-0.007,-0.0087,-0.0087,-0.0117,-0.0121,-0.0127,-0.015,-0.0152,-0.0148,-0.0149,-0.015,-0.0151,0,0,0,0,0,0,0,-0.0021,-0.0023,-0.0038,-0.0039,-0.0041,-0.0056,-0.0059,-0.0075,-0.0092,-0.0072,-0.0074,-0.0076,-0.0118,-0.0125,-0.0128,-0.0153,-0.0148,-0.015,-0.0151,-0.0152,-0.0181,-0.0181,0,0,0,0,0,0,-0.0014,-0.0022,-0.0037,-0.0039,-0.0033,-0.0056,-0.0059,-0.006,-0.0092,-0.0096,-0.0076,-0.0078,-0.0122,-0.0126,-0.013,-0.0126,-0.015,-0.0152,-0.0153,-0.0182,-0.0181,-0.0181,0,0,0,0,0,0,-0.0014,-0.0015,-0.0035,-0.0031,-0.0034,-0.0055,-0.0056,-0.006,-0.0065,-0.0095,-0.01,-0.0077,-0.0122,-0.0128,-0.014,-0.0128,-0.0153,-0.0154,-0.0182,-0.0182,-0.0181,-0.0124,0,0,0,0,0,0,-0.0013,-0.0015,-0.0012,-0.003,-0.0034,-0.0038,-0.0056,-0.0061,-0.0067,-0.0069,-0.0097,-0.0103,-0.0123,-0.0137,-0.0142,-0.0131,-0.0156,-0.0183,-0.0182,-0.0181,-0.0126,-0.0122,-0.0118,0,0,0,0,0,-0.0012,-0.0004,-0.0011,-0.0013,-0.003,-0.0037,-0.0041,-0.0057,-0.0066,-0.0064,-0.0084,-0.0102,-0.0137,-0.0138,-0.0144,-0.0134,-0.0183,-0.0182,-0.0181,-0.0128,-0.0123,-0.0118,0,0,0,0,0,0,0.0006,-0.0006,-0.0015,-0.0011,-0.0022,-0.0042,-0.0041,-0.0053,-0.0067,-0.0069,-0.0098,-0.0104,-0.0112,-0.0131,-0.0132,-0.0141,-0.0163,-0.0163,-0.0121,-0.0116,-0.0111,-0.0097,-0.0157,0,0,0,0,0,0.0011,0.0014,-0.0001,0.0001,-0.0001,-0.002,-0.0025,-0.0036,-0.0051,-0.0058,-0.0078,-0.0099,-0.0114,-0.0121,-0.014,-0.0143,-0.0167,-0.0141,-0.0136,-0.0132,-0.0125,-0.0152,-0.0149,-0.0179,-0.0179,-0.0179,0,0,0.0018,0.0012,0.0013,0.0005,-0.0004,0.0001,-0.0024,-0.0027,-0.0021,-0.0061,-0.0061,-0.0086,-0.0113,-0.0117,-0.0122,-0.013,-0.0138,-0.0131,-0.0128,-0.0123,-0.0151,-0.0148,-0.0146,-0.0178,-0.0178,-0.0178,0,0,0.0036,0.0029,0.0038,0.0035,0.0026,0.0017,0.0019,0.0002,-0.0003,-0.0007,-0.0034,-0.0051,-0.0073,-0.0089,-0.0099,-0.0083,-0.0117,-0.009,-0.0052,-0.0078,-0.0076,-0.0074,-0.0103,-0.0104,-0.0084,-0.0084,-0.0084,0,0.0044,0.0055,0.0039,0.0049,0.0054,0.0028,0.0044,0.0036,0.0017,0.0018,0.0001,-0.0032,-0.0058,-0.006,-0.0055,-0.0072,-0.0094,-0.0068,-0.0072,-0.007,-0.007,-0.0099,-0.0102,-0.0081,-0.0081,-0.0081,-0.0082,0,0.0069,0.0079,0.0086,0.0092,0.0095,0.0104,0.0094,0.0093,0.0082,0.0071,0.0063,0.0026,0.0009,-0.0004,-0.0024,-0.0027,-0.0047,-0.0065,-0.0082,-0.0063,-0.0096,-0.0099,-0.0077,-0.0078,-0.0079,-0.0079,0,0,0.0088,0.0101,0.0106,0.0121,0.0122,0.0129,0.0141,0.0146,0.0159,0.0132,0.0145,0.0109,0.0085,0.0071,0.004,0.0018,-0.0,-0.0015,-0.0017,-0.0038,-0.0059,-0.0066,-0.007,-0.0018,-0.0018,-0.0019,-0.0085,0,0.0114,0.0146,0.0146,0.0183,0.0201,0.0192,0.0209,0.0209,0.0201,0.0205,0.0166,0.0163,0.0116,0.0113,0.0081,0.002,-0.0006,0.0019,-0.0079,-0.0082,-0.0086,-0.0073,-0.0019,-0.0087,-0.0088,-0.0089,-0.0089,0,0.0142,0.0162,0.0203,0.0237,0.0245,0.0265,0.0294,0.0306,0.0301,0.0295,0.0277,0.0244,0.021,0.0168,0.0074,0.0093,0.0025,-0.0027,-0.0032,-0.0058,-0.0094,-0.0111,-0.0095,-0.0095,-0.0094,-0.0094,-0.0094,0,0.0167,0.0205,0.0243,0.0254,0.0284,0.0309,0.0328,0.0335,0.0362,0.0357,0.037,0.0312,0.0297,0.0203,0.009,0.0084,-0.0018,-0.0044,-0.0115,-0.0117,-0.0117,-0.0118,-0.0107,-0.0107,-0.0107,-0.0107,-0.0107,0,0.0197,0.0228,0.0263,0.0284,0.0342,0.035,0.0409,0.0414,0.0439,0.048,0.0424,0.0436,0.0306,0.0231,0.0115,-0.0008,-0.0003,-0.0104,-0.013,-0.0092,-0.009,-0.0119,-0.012,-0.011,-0.0109,-0.0109,-0.0108,0,0.0218,0.0237,0.0286,0.0333,0.0356,0.0399,0.0471,0.051,0.0525,0.0577,0.0583,0.0531,0.0435,0.0293,0.014,0.0038,-0.0089,-0.0134,-0.0079,-0.0103,-0.0178,-0.0174,-0.0217,-0.0218,-0.0219,-0.0219,-0.0219,0,0.0229,0.0256,0.0324,0.0364,0.0392,0.0461,0.0511,0.055,0.0598,0.0637,0.0664,0.0598,0.0541,0.033,0.0163,-0.0059,-0.0094,-0.0167,-0.0176,-0.0165,-0.0187,-0.0183,-0.0179,-0.022,-0.0221,-0.0221,-0.0221,0,0.0253,0.0278,0.0321,0.0401,0.0465,0.0546,0.0622,0.0663,0.0716,0.073,0.0746,0.0644,0.0535,0.035,0.0177,0.0015,-0.0125,-0.0174,-0.0174,-0.0184,-0.017,-0.019,-0.0185,-0.0223,-0.0223,-0.0222,-0.0222,0,0.0272,0.0306,0.0363,0.044,0.0522,0.0611,0.0649,0.0715,0.0764,0.0802,0.0804,0.0691,0.0624,0.0389,0.0229,0.0067,0.002,-0.0043,-0.0051,-0.0051,0.0009,0.0051,0.005,0,0,0,0,0,0.029,0.0331,0.0397,0.0486,0.057,0.0626,0.0715,0.0748,0.0797,0.0821,0.082,0.0722,0.0509,0.0416,0.0256,0.0188,-0.0032,-0.0009,-0.0114,-0.0234,-0.0232,-0.0192,0,0,0,0,0,0,0.0301,0.0359,0.0396,0.0514,0.0583,0.0687,0.0748,0.0783,0.0797,0.0819,0.0712,0.0674,0.0461,0.0608,0.0254,0.0204,0.0112,-0.0106,-0.011,-0.0236,-0.0234,-0.0232,-0.019,0,0,0,0,0]}]]